Decatur, IL

10:42 AM CDT on May 25, 2018 (GMT -0500)
Decatur

Weather History for KDEC - September, 2014

Change the Weather History Date:

Thursday, September 4, 2014

  Actual Average Record
Temperature  
Mean Temperature 80 °F 71 °F  
Max Temperature 90 °F 82 °F 98 °F (2007)
Min Temperature 70 °F 59 °F 44 °F (1997)
Degree Days  
Heating Degree Days 0 0  
Month to date heating degree days 0 0  
Since 1 July heating degree days 2 6  
Cooling Degree Days 15 6  
Month to date cooling degree days 44 26  
Year to date cooling degree days 948 944  
Growing Degree Days 30 (Base 50)    
Moisture  
Dew Point 71 °F    
Average Humidity 75    
Maximum Humidity 85    
Minimum Humidity 64    
Precipitation  
Precipitation T in 0.12 in 2.63 in (2008)
Month to date precipitation 0.58 0.51  
Year to date precipitation 24.51 26.82  
Sea Level Pressure  
Sea Level Pressure 30.00 in    
Wind  
Wind Speed 11 mph (South)    
Max Wind Speed 20 mph    
Max Gust Speed 24 mph    
Visibility 10 miles    
Events      
T = Trace of Precipitation, MM = Missing Value Source: NWS Daily Summary

Daily Weather History Graph

Daily Weather History Graph

Search for Another Location

Airport or City:

Astronomy

Sep. 04, 2014 Rise Set
Actual Time 6:26 AM CDT 7:21 PM CDT
Civil Twilight 5:58 AM CDT 7:49 PM CDT
Nautical Twilight 5:25 AM CDT 8:22 PM CDT
Astronomical Twilight 4:51 AM CDT 8:55 PM CDT
Moon 3:59 PM CDT (9/4) 1:17 AM CDT (9/4)
Length of Visible Light 13h 50m
Length of Day
12h 55m
Waxing Gibbous, 74% of the Moon is Illuminated
Sep 4
Waxing Gibbous
Sep 8
Full
Sep 15
Last Quarter
Sep 24
New
Oct 1
First Quarter

Hourly Weather History & Observations

Time (CDT) Temp. Heat Index Dew Point Humidity Pressure Visibility Wind Dir Wind Speed Gust Speed Precip Events Conditions
12:54 AM 73.0 °F - 66.0 °F 79% 30.00 in 10.0 mi South 11.5 mph - N/A   Mostly Cloudy
1:54 AM 72.0 °F - 66.0 °F 81% 30.00 in 10.0 mi South 10.4 mph - 0.00 in   Mostly Cloudy
2:54 AM 72.0 °F - 66.0 °F 81% 30.00 in 10.0 mi South 8.1 mph - N/A   Mostly Cloudy
3:54 AM 72.0 °F - 64.9 °F 78% 29.98 in 10.0 mi South 11.5 mph - N/A   Scattered Clouds
4:54 AM 71.1 °F - 64.9 °F 81% 29.99 in 10.0 mi South 10.4 mph - N/A   Clear
5:54 AM 70.0 °F - 64.9 °F 84% 29.99 in 10.0 mi South 9.2 mph - N/A   Clear
6:54 AM 71.1 °F - 64.9 °F 81% 29.99 in 9.0 mi South 9.2 mph - N/A   Clear
7:54 AM 73.9 °F - 66.9 °F 79% 30.02 in 10.0 mi SSW 9.2 mph - N/A   Clear
8:54 AM 75.0 °F - 68.0 °F 79% 30.06 in 10.0 mi NNW 12.7 mph 24.2 mph N/A   Overcast
9:03 AM 75.0 °F - 68.0 °F 79% 30.07 in 10.0 mi North 6.9 mph - N/A   Overcast
9:45 AM 77.0 °F - 70.0 °F 79% 30.04 in 10.0 mi SSE 6.9 mph - N/A   Scattered Clouds
9:54 AM 78.1 °F - 70.0 °F 76% 30.03 in 10.0 mi SSE 5.8 mph - N/A   Partly Cloudy
10:54 AM 80.1 °F 83.6 °F 71.1 °F 74% 30.03 in 10.0 mi SSE 8.1 mph - N/A   Clear
11:54 AM 82.9 °F 88.0 °F 72.0 °F 69% 30.03 in 10.0 mi SE 9.2 mph - N/A   Clear
12:54 PM 82.9 °F 88.8 °F 73.0 °F 72% 30.02 in 10.0 mi SE 10.4 mph - N/A   Clear
1:54 PM 88.0 °F 97.5 °F 75.0 °F 65% 30.01 in 10.0 mi SSE 12.7 mph - N/A   Partly Cloudy
2:54 PM 88.0 °F 97.5 °F 75.0 °F 65% 29.99 in 10.0 mi South 9.2 mph - N/A   Mostly Cloudy
3:54 PM 90.0 °F 100.2 °F 75.0 °F 61% 29.96 in 10.0 mi SSW 11.5 mph - N/A   Scattered Clouds
4:54 PM 89.1 °F 99.1 °F 75.0 °F 63% 29.96 in 10.0 mi South 18.4 mph - N/A   Scattered Clouds
5:54 PM 88.0 °F 97.5 °F 75.0 °F 65% 29.96 in 10.0 mi South 10.4 mph - N/A   Clear
6:54 PM 84.9 °F 93.3 °F 75.0 °F 72% 29.96 in 10.0 mi South 15.0 mph - N/A   Clear
7:54 PM 82.9 °F 90.2 °F 75.0 °F 77% 29.97 in 10.0 mi South 9.2 mph - N/A   Clear
9:54 PM 80.1 °F 84.5 °F 73.9 °F 81% 29.99 in 10.0 mi South 9.2 mph 18.4 mph N/A   Clear
10:54 PM 79.0 °F - 73.9 °F 84% 30.01 in 10.0 mi South 11.5 mph - N/A   Clear
11:54 PM 78.1 °F - 73.9 °F 87% 30.02 in 10.0 mi South 9.2 mph - N/A   Clear